[[{"header":{"parameterUnit":"m.s-1","parameterCategory":1,"la1":30.2991,"la2":30.254,"lo1":-89.0895,"lo2":-89.0444,"dy":0.0017,"dx":0.0017,"nx":28,"ny":28,"refTime":"2024-05-05T03:00:00:Z","depth":0,"parameterNumber":2,"parameterNumberName":"U-component_of_WINDS"},"data":[0,0,0,0,0,0,0,0,0,0,0,0,0,0,0,0,0,0,0,0,0,0,0,0,0,0,0,0,0,0,0,0,0,0,0,0,0,0,0,0,0,0,0,0,0,0,0,0,0,0,0,0,0,0,0,0,0,0,-3.4063,-3.4063,0,-3.4042,-3.4042,-3.4042,-3.3945,-3.3943,-3.394,-3.3938,-3.3918,-3.3919,-3.3921,0,0,0,0,0,0,0,0,0,0,0,0,0,-3.4021,-3.4022,-3.4063,-3.4063,-3.4063,-3.4042,-3.4042,-3.4042,-3.3945,-3.3943,-3.394,-3.3937,-3.3917,-3.3919,-3.3921,0,0,0,0,0,0,0,0,0,0,0,0,0,-3.4024,-3.4023,-3.4063,-3.4012,-3.4007,-3.4042,-3.4042,-3.4042,-3.3946,-3.3942,-3.3939,-3.3936,-3.3917,-3.3919,-3.3921,-3.4004,0,0,-3.3928,-3.3929,0,0,0,0,0,0,0,0,-3.4024,-3.4025,-3.402,-3.4016,-3.401,-3.3993,-3.4019,-3.4029,-3.3947,-3.3969,-3.3938,-3.3934,-3.3945,-3.3945,-3.3949,-3.4003,-3.4002,-3.3929,-3.393,-3.3931,-3.3932,0,0,0,0,0,0,0,-3.4024,-3.4026,-3.4055,-3.402,-3.4014,-3.3991,-3.3987,-3.4021,-3.3977,-3.3967,-3.396,-3.3959,-3.3942,-3.3947,-3.3948,-3.4002,-3.3928,-3.3931,-3.3932,-3.3933,-3.4123,-3.4127,0,0,0,0,0,0,-3.4031,-3.4026,-3.4056,-3.4054,-3.4009,-3.3994,-3.399,-3.4002,-3.3976,-3.3969,-3.3962,-3.3954,-3.3944,-3.3945,-3.3946,-3.4042,-3.3931,-3.3933,-3.3935,-3.4119,-3.4124,-3.4128,0,0,0,0,0,0,-3.403,-3.4034,-3.4056,-3.4038,-3.4039,-3.3999,-3.4012,-3.4003,-3.4008,-3.3972,-3.3964,-3.3974,-3.3942,-3.3943,-3.399,-3.404,-3.3934,-3.3936,-3.4115,-3.4121,-3.4126,-3.4233,0,0,0,0,0,0,-3.4029,-3.4035,-3.4065,-3.404,-3.4041,-3.4101,-3.4015,-3.4005,-3.4012,-3.4002,-3.3982,-3.3975,-3.3939,-3.3987,-3.3993,-3.4041,-3.3938,-3.4111,-3.4118,-3.4124,-3.4225,-3.4241,-3.4255,0,0,0,0,0,-3.4028,-3.4096,-3.4067,-3.4071,-3.4078,-3.4104,-3.4104,-3.4061,-3.4016,-3.4047,-3.4024,-3.3976,-3.4034,-3.3993,-3.3998,-3.4048,-3.4107,-3.4116,-3.4124,-3.4218,-3.4238,-3.4255,0,0,0,0,0,0,-3.4129,-3.4092,-3.4059,-3.4121,-3.4116,-3.4087,-3.4124,-3.4084,-3.4092,-3.4082,-3.4029,-3.4025,-3.408,-3.4069,-3.4024,-3.4127,-3.4062,-3.4072,-3.4132,-3.4151,-3.4166,-3.4168,-3.394,0,0,0,0,0,-3.4158,-3.4181,-3.4148,-3.4206,-3.4205,-3.4166,-3.4175,-3.4142,-3.4135,-3.4133,-3.4113,-3.4108,-3.4125,-3.4138,-3.4151,-3.4223,-3.4217,-3.426,-3.4275,-3.4288,-3.4297,-3.4334,-3.4353,-3.4155,-3.4155,-3.4155,0,0,-3.4219,-3.4202,-3.422,-3.4226,-3.4218,-3.4244,-3.4164,-3.4195,-3.4213,-3.4137,-3.418,-3.4167,-3.4157,-3.4218,-3.4243,-3.421,-3.435,-3.4298,-3.4309,-3.4311,-3.4344,-3.4363,-3.438,-3.416,-3.4159,-3.4158,0,0,-3.4343,-3.4332,-3.4379,-3.4373,-3.4363,-3.4336,-3.4348,-3.4325,-3.4312,-3.4355,-3.4298,-3.432,-3.4351,-3.4346,-3.4349,-3.4472,-3.4428,-3.4478,-3.4558,-3.4596,-3.4611,-3.4625,-3.4669,-3.4685,-3.4487,-3.4488,-3.4488,0,-3.442,-3.4456,-3.4409,-3.4443,-3.4448,-3.438,-3.4427,-3.4424,-3.4419,-3.4424,-3.4386,-3.4423,-3.4412,-3.4471,-3.4501,-3.4505,-3.4517,-3.448,-3.4613,-3.4626,-3.4638,-3.4679,-3.4696,-3.4494,-3.4493,-3.4492,-3.4492,0,-3.4551,-3.4577,-3.4617,-3.4613,-3.4622,-3.4663,-3.4622,-3.4637,-3.4604,-3.4582,-3.4627,-3.4612,-3.4621,-3.4633,-3.4601,-3.4687,-3.4666,-3.4622,-3.4556,-3.4664,-3.4702,-3.4717,-3.4503,-3.45,-3.4499,-3.4497,0,0,-3.4737,-3.4707,-3.4722,-3.472,-3.4704,-3.4723,-3.4762,-3.4771,-3.4785,-3.4784,-3.4814,-3.4842,-3.4801,-3.4804,-3.4771,-3.4803,-3.4903,-3.4755,-3.4754,-3.4783,-3.4997,-3.503,-3.5049,-3.4874,-3.4876,-3.4879,-3.4997,0,-3.4855,-3.4918,-3.4877,-3.4947,-3.497,-3.4907,-3.494,-3.4934,-3.4915,-3.4932,-3.4911,-3.4931,-3.4875,-3.4876,-3.4906,-3.4884,-3.4945,-3.4875,-3.4902,-3.4903,-3.4906,-3.5069,-3.5104,-3.5217,-3.5012,-3.5015,-3.5016,0,-3.5001,-3.5006,-3.5078,-3.5058,-3.5066,-3.5097,-3.5102,-3.512,-3.5112,-3.5095,-3.5099,-3.5058,-3.5095,-3.503,-3.508,-3.5034,-3.5042,-3.5034,-3.5037,-3.5037,-3.4966,-3.5074,-3.5252,-3.5269,-3.5039,-3.5037,-3.5036,0,-3.5129,-3.5154,-3.52,-3.5201,-3.5178,-3.5201,-3.5193,-3.5181,-3.519,-3.5195,-3.52,-3.521,-3.5215,-3.5223,-3.5187,-3.5143,-3.5242,-3.5174,-3.5229,-3.523,-3.5252,-3.5251,-3.5434,-3.5259,-3.5258,-3.5258,-3.5258,0,-3.5265,-3.5311,-3.5258,-3.5286,-3.5337,-3.529,-3.5341,-3.5326,-3.5317,-3.5342,-3.5288,-3.5313,-3.5263,-3.5283,-3.5254,-3.53,-3.5303,-3.5291,-3.5282,-3.5295,-3.5297,-3.53,-3.5291,-3.5262,-3.5262,-3.5261,-3.526,0,-3.5416,-3.5382,-3.5428,-3.5403,-3.5398,-3.5436,-3.5415,-3.5441,-3.5418,-3.545,-3.5455,-3.542,-3.544,-3.5404,-3.542,-3.5401,-3.5465,-3.5445,-3.5468,-3.5462,-3.5519,-3.5514,-3.5709,-3.5732,-3.5543,-3.5545,-3.5547,0,-3.5504,-3.5539,-3.5518,-3.553,-3.5525,-3.5546,-3.5555,-3.551,-3.5521,-3.5516,-3.5542,-3.5558,-3.5568,-3.5604,-3.558,-3.5593,-3.5572,-3.564,-3.5574,-3.5586,-3.5573,-3.5571,-3.5574,-3.5653,-3.5656,-3.5657,-3.5659,0,-3.5665,-3.5647,-3.5661,-3.567,-3.5681,-3.5686,-3.5686,-3.57,-3.5653,-3.5668,-3.5689,-3.5697,-3.5713,-3.573,-3.5737,-3.5728,-3.5687,-3.568,-3.5693,-3.5707,-3.5718,-3.5713,-3.5504,-3.5676,-3.5674,-3.5673,-3.5672,-3.5671,-3.5787,-3.5815,-3.5805,-3.5822,-3.5818,-3.5821,-3.5844,-3.5824,-3.584,-3.585,-3.5823,-3.585,-3.5842,-3.5846,-3.5843,-3.5863,-3.5833,-3.5853,-3.5858,-3.5863,-3.5872,-3.5716,-3.5864,-3.5864,-3.5863,-3.5863,-3.5863,0,-3.5945,-3.5936,-3.5952,-3.5955,-3.5969,-3.5929,-3.5928,-3.5942,-3.5966,-3.5962,-3.5974,-3.5998,-3.6014,-3.5992,-3.6004,-3.6025,-3.6006,-3.603,-3.6027,-3.6026,-3.5898,-3.5885,-3.6045,-3.6045,-3.6045,-3.6045,-3.6045,-3.6045,-3.6029,-3.6074,-3.6055,-3.6097,-3.6087,-3.6113,-3.6116,-3.6118,-3.6115,-3.6143,-3.6157,-3.6142,-3.6131,-3.6142,-3.6155,-3.6148,-3.6156,-3.6186,-3.6173,-3.6053,-3.6035,-3.6018,-3.6006,-3.6188,-3.6188,-3.6299,-3.63,-3.6301]},{"header":{"parameterUnit":"m.s-1","parameterCategory":1,"la1":30.2991,"la2":30.254,"lo1":-89.0895,"lo2":-89.0444,"dy":0.0017,"dx":0.0017,"nx":28,"ny":28,"refTime":"2024-05-05T03:00:00:Z","depth":0,"parameterNumber":3,"parameterNumberName":"V-component_of_WINDS"},"data":[0,0,0,0,0,0,0,0,0,0,0,0,0,0,0,0,0,0,0,0,0,0,0,0,0,0,0,0,0,0,0,0,0,0,0,0,0,0,0,0,0,0,0,0,0,0,0,0,0,0,0,0,0,0,0,0,0,0,0.8595,0.8595,0,0.8571,0.8571,0.8571,0.8554,0.8554,0.8554,0.8554,0.8528,0.8528,0.8527,0,0,0,0,0,0,0,0,0,0,0,0,0,0.8625,0.8625,0.8595,0.8595,0.8594,0.8571,0.8571,0.8571,0.8554,0.8554,0.8554,0.8554,0.8528,0.8528,0.8527,0,0,0,0,0,0,0,0,0,0,0,0,0,0.8608,0.8625,0.8595,0.8584,0.8582,0.8571,0.8571,0.8571,0.8554,0.8554,0.8554,0.8554,0.8529,0.8528,0.8527,0.8525,0,0,0.8524,0.8524,0,0,0,0,0,0,0,0,0.8609,0.8607,0.8586,0.8584,0.8583,0.8566,0.8572,0.8555,0.8554,0.8565,0.8554,0.8554,0.8541,0.8539,0.8535,0.8524,0.8523,0.8524,0.8524,0.8523,0.8523,0,0,0,0,0,0,0,0.861,0.8608,0.8586,0.8585,0.8584,0.8579,0.8577,0.8569,0.8554,0.8564,0.8563,0.856,0.854,0.8536,0.8534,0.8522,0.8524,0.8523,0.8523,0.8523,0.8511,0.8511,0,0,0,0,0,0,0.8613,0.8609,0.8586,0.8585,0.8596,0.8579,0.8576,0.8571,0.8554,0.8551,0.856,0.856,0.8537,0.8535,0.8533,0.8531,0.8523,0.8522,0.8522,0.851,0.8511,0.8511,0,0,0,0,0,0,0.8614,0.8612,0.8587,0.8597,0.8593,0.8579,0.8574,0.8571,0.8567,0.8551,0.8549,0.8559,0.8537,0.8534,0.8528,0.853,0.8522,0.8521,0.851,0.851,0.8511,0.8526,0,0,0,0,0,0,0.8615,0.8612,0.8611,0.8597,0.8593,0.8582,0.8574,0.8571,0.8565,0.8564,0.8549,0.8546,0.8537,0.8529,0.8527,0.8528,0.8521,0.851,0.851,0.8511,0.8525,0.8526,0.8528,0,0,0,0,0,0.8616,0.8616,0.8611,0.8608,0.8592,0.8583,0.858,0.8569,0.8566,0.8565,0.8555,0.8547,0.853,0.8529,0.8526,0.8527,0.851,0.851,0.8511,0.8524,0.8526,0.8528,0,0,0,0,0,0,0.8629,0.8613,0.8608,0.8603,0.8595,0.858,0.8578,0.8571,0.8563,0.8562,0.8549,0.8545,0.854,0.8533,0.8532,0.8525,0.8519,0.8519,0.853,0.8532,0.8533,0.8535,0.852,0,0,0,0,0,0.8632,0.8626,0.8612,0.8609,0.8605,0.8593,0.8588,0.8581,0.8571,0.8567,0.8557,0.8548,0.854,0.8536,0.8528,0.8524,0.8521,0.8524,0.8525,0.8526,0.8526,0.8525,0.8526,0.8512,0.8512,0.8512,0,0,0.8636,0.8627,0.8624,0.8612,0.8604,0.8599,0.859,0.8584,0.858,0.8566,0.856,0.8552,0.8541,0.8536,0.8533,0.853,0.853,0.8527,0.8528,0.8527,0.8526,0.8527,0.8528,0.8513,0.8513,0.8513,0,0,0.8642,0.8634,0.8631,0.8625,0.8614,0.8606,0.8605,0.8592,0.8587,0.858,0.8571,0.8565,0.8553,0.8545,0.854,0.8545,0.8538,0.8543,0.855,0.8549,0.855,0.8551,0.8554,0.8555,0.8543,0.8543,0.8543,0,0.8649,0.8641,0.863,0.8626,0.8621,0.861,0.8607,0.86,0.8587,0.8584,0.8581,0.8566,0.8557,0.8551,0.8553,0.8548,0.8548,0.8545,0.8551,0.8552,0.8553,0.8555,0.8556,0.8544,0.8544,0.8544,0.8544,0,0.865,0.8645,0.8644,0.8633,0.8628,0.8624,0.8613,0.8609,0.8603,0.8595,0.859,0.8579,0.857,0.8568,0.8561,0.8561,0.856,0.8554,0.8547,0.8555,0.8557,0.8558,0.8545,0.8545,0.8545,0.8545,0,0,0.8662,0.8647,0.8647,0.8642,0.8631,0.8626,0.8622,0.8614,0.8612,0.8603,0.86,0.8591,0.8586,0.858,0.8572,0.8571,0.8577,0.8565,0.8565,0.8568,0.8578,0.8583,0.8584,0.8572,0.8572,0.8572,0.8579,0,0.8666,0.8659,0.8651,0.8647,0.8642,0.8632,0.8629,0.8622,0.8615,0.861,0.8602,0.8596,0.859,0.8586,0.8585,0.8577,0.8579,0.8576,0.8569,0.8569,0.8572,0.8585,0.8589,0.8596,0.858,0.858,0.858,0,0.867,0.8664,0.8659,0.865,0.8647,0.8645,0.8637,0.8633,0.8625,0.862,0.8614,0.8607,0.8602,0.8597,0.8591,0.859,0.8587,0.8582,0.8582,0.8581,0.8575,0.8584,0.8598,0.8599,0.8581,0.8581,0.8581,0,0.868,0.867,0.8667,0.8663,0.8652,0.865,0.8645,0.8637,0.8633,0.8627,0.8624,0.8617,0.8613,0.8608,0.8599,0.8595,0.8595,0.8588,0.8591,0.8591,0.8591,0.8591,0.8604,0.8588,0.8588,0.8588,0.8588,0,0.8685,0.8683,0.8671,0.8669,0.8667,0.8658,0.8656,0.865,0.8643,0.864,0.8631,0.8628,0.8616,0.8611,0.8604,0.8601,0.8599,0.8596,0.8594,0.8597,0.8597,0.8594,0.8593,0.8589,0.8589,0.8588,0.8588,0,0.8695,0.8687,0.8683,0.8673,0.8671,0.867,0.8661,0.8659,0.8653,0.8649,0.8647,0.8637,0.8632,0.8622,0.8614,0.8609,0.8608,0.8605,0.8611,0.861,0.8614,0.8614,0.8626,0.8627,0.861,0.8611,0.8611,0,0.8699,0.8698,0.8688,0.8686,0.8682,0.8678,0.8675,0.8666,0.8662,0.8654,0.8653,0.8648,0.8642,0.8635,0.8626,0.862,0.8617,0.8622,0.8616,0.8619,0.8618,0.8618,0.8618,0.8623,0.8623,0.8623,0.8623,0,0.8707,0.8704,0.87,0.8695,0.8691,0.8687,0.8681,0.868,0.867,0.8667,0.8662,0.8658,0.8651,0.8646,0.8639,0.8634,0.8627,0.8626,0.8626,0.8629,0.8633,0.8631,0.8615,0.8625,0.8625,0.8625,0.8625,0.8625,0.8715,0.8714,0.8707,0.8703,0.8699,0.8695,0.8693,0.8687,0.8683,0.8677,0.8672,0.8668,0.8661,0.8652,0.8647,0.8644,0.864,0.8641,0.8641,0.8641,0.8643,0.8634,0.8642,0.8642,0.8642,0.8642,0.8642,0,0.8723,0.8719,0.8715,0.8709,0.8707,0.8702,0.8696,0.8694,0.8691,0.8685,0.8681,0.8677,0.8672,0.8664,0.8659,0.8658,0.8655,0.8657,0.8657,0.8656,0.8646,0.8646,0.866,0.866,0.866,0.866,0.866,0.866,0.8727,0.8725,0.8721,0.8717,0.8713,0.871,0.8708,0.8704,0.87,0.8695,0.8692,0.8687,0.8681,0.8676,0.8672,0.8669,0.8668,0.8671,0.8668,0.8658,0.8657,0.8655,0.8656,0.8671,0.8671,0.8679,0.8679,0.8679]}]]